Left ArrowRight Arrow

44.89941, -97.11507

Hourly Observations for May 17, 2020

Temp ( °F °C ) Dew Point ( °F °C ) Humidity (%) Winds ( mph kmh ) Pressure ( in mb ) Visibility ( mi km ) Precip ( " mm )
12:06 am 00:06 Cloudy 51 10.6 49 9.4 92 92 NE 9 15 30.03 1017 10 16 0.00 0.00
12:53 am 00:53 Cloudy 51 10.6 49 9.4 92 92 NE 8 13 30.03 1017 10 16 0.00 0.00
1:00 am 01:00 Cloudy 51 10.6 49 9.4 92 92 NE 9 15 30.03 1017 10 16 0.00 0.00
1:36 am 01:36 Cloudy 51 10.6 49 9.4 92 92 NE 7 11 30.04 1017 10 16 0.00 0.00
1:43 am 01:43 Cloudy 51 10.6 49 9.4 92 92 NE 8 13 30.04 1017 10 16 0.00 0.00
1:53 am 01:53 Cloudy 51 10.6 49 9.4 92 92 NE 7 11 30.04 1017 10 16 0.00 0.00
2:10 am 02:10 Cloudy 51 10.6 49 9.4 92 92 NE 13 20 30.03 1017 10 16 0.00 0.00
2:53 am 02:53 Cloudy 51 10.6 49 9.4 92 92 NE 10 17 30.03 1017 10 16 0.00 0.00
3:53 am 03:53 Cloudy 50 10 49 9.4 96 96 N 8 13 30.01 1016 8 13 0.00 0.00
4:53 am 04:53 Cloudy with Mist and Fog 50 10 49 9.4 96 96 NNE 14 22 30.02 1017 6 10 0.00 0.00
5:21 am 05:21 Cloudy with Mist and Fog 50 10 49 9.4 96 96 NNE 13 20 30.01 1016 5 8 0.00 0.00
5:42 am 05:42 Cloudy 50 10 49 9.4 96 96 NNE 12 19 30.01 1016 8 13 0.00 0.00
5:53 am 05:53 Cloudy 50 10 48 8.9 93 93 NNE 13 20 30.01 1016 9 14 0.00 0.00
6:09 am 06:09 Cloudy 50 10 48 8.9 93 93 NNE 13 20 30.01 1016 10 16 0.00 0.00
6:20 am 06:20 Cloudy 50 10 48 8.9 93 93 NNE 15 24 30.01 1016 10 16 0.00 0.00
6:32 am 06:32 Cloudy 50 10 48 8.9 93 93 NE 15 24 30.02 1017 10 16 0.00 0.00
6:53 am 06:53 Cloudy 50 10 48 8.9 93 93 NNE 15 24 30.02 1017 10 16 0.00 0.00
7:53 am 07:53 Cloudy 50 10 48 8.9 93 93 NE 16 26 30.04 1017 10 16 0.00 0.00
8:53 am 08:53 Cloudy 50 10 48 8.9 93 93 NNE 16 26 30.04 1017 10 16 0.00 0.00
9:53 am 09:53 Cloudy 51 10.6 48 8.9 89 89 NE 15 24 30.05 1018 10 16 0.00 0.00
10:15 am 10:15 Cloudy 53 11.7 49 9.4 86 86 NNE 17 28 30.04 1017 10 16 0.00 0.00
10:53 am 10:53 Cloudy 53 11.7 48 8.9 83 83 NNE 20 31 30.05 1018 10 16 0.00 0.00
11:22 am 11:22 Mostly Cloudy 56 13.3 49 9.4 77 77 NNE 16 26 30.02 1017 10 16 0.00 0.00
11:32 am 11:32 Mostly Sunny 58 14.4 49 9.4 72 72 NNE 18 30 30.00 1016 10 16 0.00 0.00
11:53 am 11:53 Sunny 59 15 49 9.4 69 69 NE 18 30 30.03 1017 10 16 0.00 0.00
12:53 pm 12:53 Mostly Sunny 60 15.6 46 7.8 60 60 NE 22 35 30.04 1017 10 16 0.00 0.00
1:53 pm 13:53 Mostly Cloudy 61 16.1 46 7.8 58 58 NE 16 26 30.03 1017 10 16 0.00 0.00
2:53 pm 14:53 Cloudy 59 15 46 7.8 62 62 NNE 17 28 30.02 1017 10 16 0.00 0.00
3:53 pm 15:53 Cloudy 59 15 45 7.2 60 60 NE 14 22 30.04 1017 10 16 0.00 0.00
4:53 pm 16:53 Cloudy 59 15 46 7.8 62 62 ENE 14 22 30.04 1017 10 16 0.00 0.00
5:53 pm 17:53 Mostly Cloudy 61 16.1 46 7.8 58 58 ENE 17 28 30.03 1017 10 16 0.00 0.00
6:53 pm 18:53 Partly Cloudy 61 16.1 43 6.1 52 52 ENE 17 28 30.04 1017 10 16 0.00 0.00
7:53 pm 19:53 Mostly Cloudy 58 14.4 43 6.1 58 58 E 15 24 30.06 1018 10 16 0.00 0.00
8:53 pm 20:53 Cloudy 55 12.8 42 5.6 62 62 E 6 9 30.08 1019 10 16 0.00 0.00
9:53 pm 21:53 Cloudy 54 12.2 42 5.6 64 64 ENE 8 13 30.10 1019 10 16 0.00 0.00
10:53 pm 22:53 Cloudy 54 12.2 42 5.6 64 64 ENE 9 15 30.11 1020 10 16 0.00 0.00
11:53 pm 23:53 Cloudy 52 11.1 41 5 66 66 NE 9 15 30.10 1019 10 16 0.00 0.00

Powered by Vaisala Xweather